History for Boise, ID on Saturday, February 28, 2015

Jump to data by:

Latest visited Airport Codes: KBOI

Data type:
 

« Previous Day | Next Day »

 
Daily Summary
Actual Average Record
Temperature
Mean Temperature 40 °F 40 °F  
Max Temperature 46 °F 50 °F 66 °F (1988)
Min Temperature 35 °F 31 °F -1 °F (1890)
Degree Days
Heating Degree Days 24 25  
Month to date heating degree days 798  
Since 1 July heating degree days 4159  
Cooling Degree Days 0 0  
Month to date cooling degree days 0  
Year to date cooling degree days 0  
Moisture
Dew Point 32 °F    
Average Humidity 76    
Maximum Humidity 87    
Minimum Humidity 60    
Precipitation
Precipitation 0.00 in 0.04 in 0.39 in (1946)
Month to date precipitation 0.99  
Year to date precipitation 2.23  
Snow
Snow - 0.10 in 1.60 in (1977)
Month to date snowfall 2.8  
Since 1 July snowfall 17.6  
Snow Depth -    
Sea Level Pressure
Sea Level Pressure 29.80 in    
Wind
Wind Speed 5 mph ()    
Max Wind Speed 12 mph    
Max Gust Speed -    
Visibility 10.0 miles    
Events     
Key: T is trace of precipitation, MM is missing value
Source: Averaged Metar Reports
Time (MST) Temp. Dew Point Humidity Sea Level Pressure Visibility Wind Direction Wind Speed Gust Speed Precip. Events Conditions
12:53 AM 41.0 °F 30.9 °F 67% 29.67 in 10.0 miles NW 6.9 mph - N/A   Overcast
1:53 AM 41.0 °F 30.9 °F 67% 29.68 in 10.0 miles West 4.6 mph - N/A   Overcast
2:53 AM 39.9 °F 28.9 °F 65% 29.69 in 10.0 miles West 4.6 mph - N/A   Overcast
3:53 AM 39.9 °F 27.0 °F 60% 29.69 in 10.0 miles West 6.9 mph - N/A   Overcast
4:53 AM 39.0 °F 28.9 °F 67% 29.71 in 10.0 miles WNW 6.9 mph - N/A   Overcast
5:36 AM 37.4 °F 30.2 °F 75% 29.73 in 10.0 miles SW 5.8 mph - N/A   Overcast
5:53 AM 36.0 °F 30.9 °F 82% 29.75 in 10.0 miles West 5.8 mph - N/A   Overcast
6:53 AM 35.1 °F 30.9 °F 85% 29.78 in 10.0 miles WSW 3.5 mph - N/A   Overcast
7:42 AM 35.6 °F 32.0 °F 87% 29.77 in 10.0 miles WNW 5.8 mph - N/A   Overcast
7:53 AM 36.0 °F 32.0 °F 86% 29.80 in 10.0 miles WNW 4.6 mph - N/A   Overcast
8:18 AM 35.6 °F 32.0 °F 87% 29.79 in 10.0 miles NW 5.8 mph - N/A   Overcast
8:53 AM 36.0 °F 32.0 °F 86% 29.84 in 10.0 miles WSW 3.5 mph - N/A   Overcast
9:18 AM 35.6 °F 32.0 °F 87% 29.82 in 10.0 miles West 3.5 mph - N/A   Overcast
9:53 AM 37.0 °F 33.1 °F 86% 29.86 in 10.0 miles NW 3.5 mph - N/A   Overcast
10:00 AM 37.4 °F 33.8 °F 87% 29.83 in 10.0 miles Calm Calm - N/A   Overcast
10:31 AM 37.4 °F 32.0 °F 81% 29.84 in 10.0 miles Calm Calm - N/A   Overcast
10:53 AM 37.0 °F 32.0 °F 82% 29.87 in 10.0 miles WNW 3.5 mph - N/A   Overcast
11:53 AM 37.9 °F 34.0 °F 86% 29.88 in 10.0 miles NW 5.8 mph - N/A   Overcast
12:33 PM 39.2 °F 33.8 °F 81% 29.85 in 10.0 miles NW 8.1 mph - N/A   Overcast
12:53 PM 39.9 °F 33.1 °F 77% 29.88 in 10.0 miles WNW 8.1 mph - N/A   Overcast
1:53 PM 41.0 °F 33.1 °F 73% 29.87 in 10.0 miles WNW 9.2 mph - N/A   Overcast
2:53 PM 43.0 °F 33.1 °F 68% 29.86 in 10.0 miles West 9.2 mph - N/A   Mostly Cloudy
3:16 PM 44.6 °F 33.8 °F 66% 29.85 in 10.0 miles West 9.2 mph - N/A   Scattered Clouds
3:44 PM 46.4 °F 33.8 °F 62% 29.85 in 10.0 miles WNW 11.5 mph - N/A   Mostly Cloudy
3:53 PM 46.0 °F 33.1 °F 61% 29.86 in 10.0 miles WNW 10.4 mph - N/A   Scattered Clouds

Powered by the Weather Underground, Inc.